Regional Weather Roundup
Issued by NWS

Home | Current Version | Previous Version | Text Only | Print | Product List | Glossary On
Versions: 1 2 3 4 5 6 7 8 9 10 11 12 13 14 15 16 17 18 19 20 21 22 23 24 25 26 27 28 29 30 31 32 33 34 35 36 37 38 39 40 41 42 43 44 45 46 47 48 49 50
000
ASUS45 KTFX 271410
RWRMT
MONTANA REGIONAL WEATHER ROUNDUP
NATIONAL WEATHER SERVICE GREAT FALLS MT
700 AM MST MON FEB 27 2017

NOTE: "FAIR" INDICATES FEW OR NO CLOUDS BELOW 12000 FEET WITH NO
SIGNIFICANT WEATHER AND/OR OBSTRUCTIONS TO VISIBILITY.

MTZ001>007-043-271500-
WEST OF THE DIVIDE

CITY           SKY/WX    TMP DP  RH WIND       PRES   REMARKS
KALISPELL      LGT SNOW  15  11  83 N6        29.62F FOG     WCI   6
MISSOULA       CLOUDY    23  19  85 S5        29.59S
BUTTE          CLOUDY     9   3  77 CALM      29.51S
MULLAN PASS    LGT SNOW  16  11  80 VRB3      29.43S
ANACONDA         N/A     10   5  79 S5        29.52F
DEER LODGE       N/A     10   7  85 CALM      29.56S
EUREKA           N/A     16  12  86 CALM      29.64F
HAMILTON         N/A     25  16  68 S14         N/A  WCI  13
LIBBY            N/A     16  14  93 CALM      29.61S
PLAINS           N/A     20  13  74 CALM      29.65
$$

MTZ008-052>055-271500-
SOUTHWEST MONTANA

CITY           SKY/WX    TMP DP  RH WIND       PRES   REMARKS
BOZEMAN        CLEAR     13   8  81 CALM      29.57F
DILLON         CLOUDY    13   5  70 S6        29.52R WCI   4
W YELLOWSTONE  FLURRIES  -9 -13  84 CALM      29.53S
ENNIS          CLEAR     14   9  79 S9        29.57S WCI   2
THREE FORKS      N/A     13 -22  19 NW3       29.62S
TWIN BRIDGES     N/A     13   3  64 S2        29.59
$$

MTZ009-010-012-014-046-048-049-054-271500-
EAST SLOPES AND CENTRAL MONTANA

CITY           SKY/WX    TMP DP  RH WIND       PRES   REMARKS
CUT BANK       CLOUDY     4   2  91 SE6       29.59F FOG     WCI  -7
GREAT FALLS    LGT SNOW  10   7  87 E5        29.62F FOG
MALMSTROM AFB  LGT SNOW   9   9 100 S5        29.64F
HELENA         CLEAR      9   4  80 SW6       29.61F WCI  -1
AUGUSTA        FLURRIES   2  -2  84 CALM      29.56F
BOWMANS CRNR   FLURRIES   6   4  91 CALM      29.55F
CHOTEAU          N/A      3   1  92 SW5       29.62F
CONRAD           N/A     -5 -10  79 NW1       29.66F
POWER          FLURRIES   2  -1  85 E5        29.61F
RAYNESFORD     SNOWSHWR   5   2  89 E6        29.61F WCI  -6
ULM            FLURRIES   7   4  89 MISG      29.63F
$$

MTZ011-013-016-021-045-047-050-051-271500-
NORTH CENTRAL MONTANA

CITY           SKY/WX    TMP DP  RH WIND       PRES   REMARKS
HAVRE          CLOUDY     8   6  92 NE8       29.73F WCI  -4
LEWISTOWN      CLOUDY     7   4  87 SE6       29.60S WCI  -3
N BAR RANCH    CLOUDY     7   3  85 CALM      29.62S
CHINOOK          N/A      7   3  85 CALM      29.76F
DENTON         FLURRIES   9   8  92 NE10      29.61S WCI  -5
FORT BENTON      N/A     10   9  92 MISG      29.70
GEYSER         FLURRIES  10   7  90 CALM      29.60F
GRASS RANGE    FLURRIES   9   8  93 CALM      29.62R
JUDITH GAP     FLURRIES   4   1  86 N3        29.57S
ROY            FLURRIES  12  11  92 MISG      29.65S
STANFORD       FLURRIES   5   3  91 NW3       29.58S
WINIFRED         N/A      5   3  94 E12       29.63S WCI -11
$$

MTZ017>020-022>027-061-062-271500-
NORTHEAST MONTANA

CITY           SKY/WX    TMP DP  RH WIND       PRES   REMARKS
GLASGOW        LGT SNOW  13   9  84 E7        29.76S FOG     WCI   3
JORDAN           N/A     17  13  84 NE6       29.70S WCI   9
SIDNEY         LGT SNOW  14  10  84 NE14      29.79S FOG     WCI  -1
WOLF POINT     LGT SNOW  14   8  77 E13       29.80S WCI   0
PLENTYWOOD       N/A      7   1  78 N10       29.80R WCI  -8
POPLAR           N/A     10   7  85 NE10      29.81S WCI  -3
SCOBEY           N/A      6  -4  63 NW3       29.77
$$

MTZ028>42-056>058-271500-
SOUTHCENTRAL AND SOUTHEAST MONTANA

CITY           SKY/WX    TMP DP  RH WIND       PRES   REMARKS
BAKER          CLOUDY    22  18  85 SE16      29.63R WCI   8
BILLINGS       CLOUDY    20  17  88 N8        29.63R WCI  10
LIVINGSTON     PTCLDY    15  11  83 E9        29.55S WCI   3
MILES CITY     CLOUDY    22  18  85 NE16      29.64S WCI   8
BIG TIMBER     CLOUDY    18  14  86 NE5       29.60S
EKALAKA          N/A     18  12  77 E7        29.60  WCI   9
FORSYTH          N/A     23  21  93 N6        29.65R WCI  16
HARLOWTON      FLURRIES  10   6  84 SW3       29.60R
LAUREL           N/A     21  13  71 NW8       29.64R WCI  11
ROUNDUP          N/A     15   9  77 N6        29.60R WCI   6
$$

REGIONAL REPORTS...DAKOTAS

CITY           SKY/WX    TMP DP  RH WIND       PRES   REMARKS
WILLISTON      LGT SNOW  11   7  84 NE8       29.82S FOG     WCI  -1
MINOT          LGT SNOW  14   9  80 NW9       29.83R WCI   2
DICKINSON      CLOUDY    18  14  84 E7        29.67S WCI   9
BEACH            N/A    N/A N/A N/A MISG        N/A
CROSBY         MOCLDY     7   1  78 N8        29.86R WCI  -6
TIOGA          LGT SNOW   9   9 100 NE7       29.80S WCI  -3
WATFORD CITY   LGT SNOW  12   9  85 NE12      29.80R WCI  -2
BISMARCK       CLOUDY    11   8  88 NE7       29.80F WCI   0
GRAND FORKS    CLOUDY    13   6  74 S5        29.90R
FARGO          CLOUDY    17  13  84 CALM      29.90S
BUFFALO SD       N/A     22  19  89 SE6       29.58R WCI  14
RAPID CITY     CLEAR     16   9  74 NE3       29.63S
$$

REGIONAL REPORTS...WYOMING/IDAHO/WASHINGTON

CITY           SKY/WX    TMP DP  RH WIND       PRES   REMARKS
GILLETTE       CLOUDY    25  11  55 SW14      29.54F WCI  13
SHERIDAN       CLOUDY    19  11  70 VRB6      29.56R WCI  11
BUFFALO WY     CLOUDY    28   6  39 W22       29.51F WCI  14
CODY           CLOUDY    22  12  65 NE3       29.53F
YELLOWSTONE LA   N/A     -2  -3  96 CALM      29.50S
IDAHO FALLS    CLOUDY    20  20 100 W6        29.61S WCI  12
SALMON         CLOUDY    19  12  73 N3        29.58S
BOISE          CLOUDY    29  25  85 SE3       29.68R
SPOKANE        LGT SNOW  26  24  92 CALM      29.63S VSB 3/4
$$

REGIONAL REPORTS...ALBERTA

CITY           SKY/WX    TMP DP  RH WIND       PRES   REMARKS
EDMONTON       CLEAR      3  -4  72 SW7       29.62F WCI  -9
CALGARY        PTCLDY     3  -2  78 S8        29.55F WCI -10
LETHBRIDGE     MOCLDY    -4  -8  84 S6        29.65F WCI -16
MEDICINE HAT   PTCLDY    -6  -9  84 E2        29.75F
WATERTON GATE    N/A     -6  -9  84 E3          N/A
CARDSTON         N/A      0  -4  85 NE1         N/A
MILK RIVER       N/A     -2  -4  92 S1          N/A
$$

REGIONAL REPORTS...SASKATCHEWAN

CITY           SKY/WX    TMP DP  RH WIND       PRES   REMARKS
SWIFT CURRENT  CLEAR     -6  -9  84 S9        29.73S WCI -22
REGINA         PTCLDY    -4  -8  84 NW6       29.83S WCI -16
SASKATOON      PTCLDY    -9 -13  84 S6        29.84F WCI -23
CYPRESS HILLS    N/A     -2  -8  78 SW1         N/A
VAL MARIE        N/A      1  -4  78 E3          N/A
ROCKGLEN         N/A      0  -2  92 NE3         N/A
ASSINIBOIA       N/A      0  -4  85 SW7         N/A  WCI -13
$$



USA.gov is the U.S. government's official web portal to all federal, state and local government web resources and services.